Time,TemperatureF,DewpointF,PressureIn,WindDirection,WindDirectionDegrees,WindSpeedMPH,WindSpeedGustMPH,Humidity,HourlyPrecipIn,Conditions,Clouds,dailyrainin,SoftwareType,DateUTC
2013-12-20 00:02:00,43.9,39.1,29.66,SSW,209,0.0,0.0,83,0.00,,,0.00,VWS V14.01,2013-12-20 05:02:00,
2013-12-20 00:07:00,43.8,39.6,29.66,SSW,198,0.0,0.0,85,0.00,,,0.00,VWS V14.01,2013-12-20 05:07:00,
2013-12-20 00:12:00,43.6,39.4,29.66,South,184,0.0,0.0,85,0.00,,,0.00,VWS V14.01,2013-12-20 05:12:00,
2013-12-20 00:18:00,43.5,39.6,29.65,SSW,195,0.0,0.0,86,0.00,,,0.00,VWS V14.01,2013-12-20 05:18:00,
2013-12-20 00:23:00,43.3,39.4,29.65,SSW,193,0.0,0.0,86,0.00,,,0.00,VWS V14.01,2013-12-20 05:23:00,
2013-12-20 00:33:00,43.1,39.5,29.65,SSW,200,0.0,0.0,87,0.00,,,0.00,VWS V14.01,2013-12-20 05:33:00,
2013-12-20 00:37:00,43.3,39.4,29.65,South,169,0.0,0.0,86,0.00,,,0.00,VWS V14.01,2013-12-20 05:37:00,
2013-12-20 00:43:00,43.3,39.4,29.65,South,188,0.0,0.0,86,0.00,,,0.00,VWS V14.01,2013-12-20 05:43:00,
2013-12-20 00:53:00,43.3,39.1,29.65,South,169,0.0,0.0,85,0.00,,,0.00,VWS V14.01,2013-12-20 05:53:00,
2013-12-20 00:58:00,43.3,39.4,29.65,South,189,0.0,0.0,86,0.00,,,0.00,VWS V14.01,2013-12-20 05:58:00,
2013-12-20 01:02:00,43.3,39.4,29.64,SSE,154,0.0,0.0,86,0.00,,,0.00,VWS V14.01,2013-12-20 06:02:00,
2013-12-20 01:08:00,43.2,39.3,29.64,South,169,0.0,0.0,86,0.00,,,0.00,VWS V14.01,2013-12-20 06:08:00,
2013-12-20 01:13:00,43.2,39.3,29.64,SSE,152,0.0,0.0,86,0.00,,,0.00,VWS V14.01,2013-12-20 06:13:00,
2013-12-20 01:18:00,43.2,39.3,29.64,South,176,0.0,0.0,86,0.00,,,0.00,VWS V14.01,2013-12-20 06:18:00,
2013-12-20 01:23:00,43.2,39.3,29.64,South,185,0.0,0.0,86,0.00,,,0.00,VWS V14.01,2013-12-20 06:23:00,
2013-12-20 01:28:00,43.3,39.4,29.64,SSE,168,0.0,0.0,86,0.00,,,0.00,VWS V14.01,2013-12-20 06:28:00,
2013-12-20 01:38:00,43.5,39.6,29.63,SSE,158,0.0,0.0,86,0.00,,,0.00,VWS V14.01,2013-12-20 06:38:00,
2013-12-20 01:43:00,43.6,39.7,29.63,SSE,165,0.0,0.0,86,0.00,,,0.00,VWS V14.01,2013-12-20 06:43:00,
2013-12-20 01:48:00,43.6,39.7,29.63,South,179,0.0,0.0,86,0.00,,,0.00,VWS V14.01,2013-12-20 06:48:00,
2013-12-20 01:57:00,43.5,39.6,29.63,SSE,168,0.0,0.0,86,0.00,,,0.00,VWS V14.01,2013-12-20 06:57:00,
2013-12-20 02:03:00,43.5,39.6,29.62,South,188,0.0,0.0,86,0.00,,,0.00,VWS V14.01,2013-12-20 07:03:00,
2013-12-20 02:08:00,43.5,39.3,29.62,SE,144,0.0,0.0,85,0.00,,,0.00,VWS V14.01,2013-12-20 07:08:00,
2013-12-20 02:13:00,43.5,39.3,29.62,South,175,0.0,0.0,85,0.00,,,0.00,VWS V14.01,2013-12-20 07:13:00,
2013-12-20 02:17:00,43.6,39.4,29.62,South,174,0.0,0.0,85,0.00,,,0.00,VWS V14.01,2013-12-20 07:17:00,
2013-12-20 02:22:00,43.8,39.6,29.62,SSE,164,0.0,0.0,85,0.00,,,0.00,VWS V14.01,2013-12-20 07:22:00,
2013-12-20 02:27:00,43.9,39.7,29.62,SSE,164,0.0,0.0,85,0.00,,,0.00,VWS V14.01,2013-12-20 07:27:00,
2013-12-20 02:32:00,44.1,39.9,29.62,SSE,165,0.0,0.0,85,0.00,,,0.00,VWS V14.01,2013-12-20 07:32:00,
2013-12-20 02:37:00,44.1,39.9,29.62,South,169,0.0,0.0,85,0.00,,,0.00,VWS V14.01,2013-12-20 07:37:00,
2013-12-20 02:42:00,44.2,40.0,29.62,SSE,167,0.0,0.0,85,0.00,,-RA,0.00,VWS V14.01,2013-12-20 07:42:00,
2013-12-20 02:47:00,44.1,39.9,29.62,SSE,165,0.0,0.0,85,0.00,,-RA,0.00,VWS V14.01,2013-12-20 07:47:00,
2013-12-20 02:58:00,44.2,40.3,29.62,SSE,154,0.0,0.0,86,0.00,,-RA,0.00,VWS V14.01,2013-12-20 07:58:00,
2013-12-20 03:08:00,43.9,40.0,29.62,SSE,150,0.0,0.0,86,0.00,,-RA,0.00,VWS V14.01,2013-12-20 08:08:00,
2013-12-20 03:13:00,44.1,40.5,29.62,SSE,168,0.0,0.0,87,0.00,,-RA,0.00,VWS V14.01,2013-12-20 08:13:00,
2013-12-20 03:18:00,44.2,40.9,29.62,SSE,158,0.0,0.0,88,0.00,,-RA,0.00,VWS V14.01,2013-12-20 08:18:00,
2013-12-20 03:23:00,44.1,40.8,29.62,SSW,205,0.0,0.0,88,0.00,,-RA,0.00,VWS V14.01,2013-12-20 08:23:00,
2013-12-20 03:28:00,44.1,40.8,29.62,SSE,164,0.0,0.0,88,0.00,,-RA,0.00,VWS V14.01,2013-12-20 08:28:00,
2013-12-20 03:33:00,44.1,41.1,29.62,SE,143,0.0,0.0,89,0.00,,-RA,0.00,VWS V14.01,2013-12-20 08:33:00,
2013-12-20 03:38:00,43.9,40.9,29.62,SW,220,0.0,0.0,89,0.00,,-RA,0.00,VWS V14.01,2013-12-20 08:38:00,
2013-12-20 03:43:00,43.8,40.8,29.62,SSE,168,0.0,0.0,89,0.00,,-RA,0.00,VWS V14.01,2013-12-20 08:43:00,
2013-12-20 03:53:00,43.8,41.1,29.62,South,174,0.0,0.0,90,0.01,,-RA,0.01,VWS V14.01,2013-12-20 08:53:00,
2013-12-20 03:58:00,43.8,41.1,29.62,SSW,203,0.0,0.0,90,0.01,,-RA,0.01,VWS V14.01,2013-12-20 08:58:00,
2013-12-20 04:07:00,43.8,41.3,29.61,SSE,158,0.0,0.0,91,0.01,,-RA,0.01,VWS V14.01,2013-12-20 09:07:00,
2013-12-20 04:12:00,43.8,41.3,29.61,South,188,0.0,0.0,91,0.02,,-RA,0.02,VWS V14.01,2013-12-20 09:12:00,
2013-12-20 04:17:00,43.8,41.6,29.60,SSW,195,0.0,0.0,92,0.02,,-RA,0.02,VWS V14.01,2013-12-20 09:17:00,
2013-12-20 04:22:00,44.1,41.9,29.60,South,185,0.0,0.0,92,0.02,,-RA,0.02,VWS V14.01,2013-12-20 09:22:00,
2013-12-20 04:28:00,43.9,41.7,29.60,South,184,0.0,0.0,92,0.02,,-RA,0.02,VWS V14.01,2013-12-20 09:28:00,
2013-12-20 04:37:00,43.8,41.6,29.60,SSW,196,0.0,0.0,92,0.02,,-RA,0.02,VWS V14.01,2013-12-20 09:37:00,
2013-12-20 04:43:00,43.8,41.6,29.60,SSW,208,0.0,0.0,92,0.02,,-RA,0.02,VWS V14.01,2013-12-20 09:43:00,
2013-12-20 04:52:00,44.1,42.2,29.60,SSW,193,0.0,0.0,93,0.01,,-RA,0.02,VWS V14.01,2013-12-20 09:52:00,
2013-12-20 04:58:00,43.9,42.0,29.60,SSW,209,0.0,0.0,93,0.01,,-RA,0.02,VWS V14.01,2013-12-20 09:58:00,
2013-12-20 05:03:00,44.1,42.2,29.60,SSW,202,0.0,0.0,93,0.01,,-RA,0.02,VWS V14.01,2013-12-20 10:03:00,
2013-12-20 05:08:00,44.1,42.2,29.60,SSW,198,0.0,0.0,93,0.02,,-RA,0.03,VWS V14.01,2013-12-20 10:08:00,
2013-12-20 05:13:00,43.9,42.0,29.60,SSE,160,0.0,0.0,93,0.02,,-RA,0.03,VWS V14.01,2013-12-20 10:13:00,
2013-12-20 05:22:00,44.2,42.3,29.59,South,182,0.0,0.0,93,0.01,,-RA,0.03,VWS V14.01,2013-12-20 10:22:00,
2013-12-20 05:28:00,44.1,42.2,29.59,SSW,195,0.0,0.0,93,0.02,,-RA,0.04,VWS V14.01,2013-12-20 10:28:00,
2013-12-20 05:33:00,44.1,42.5,29.59,SSW,206,0.0,0.0,94,0.02,,-RA,0.04,VWS V14.01,2013-12-20 10:33:00,
2013-12-20 05:43:00,44.1,42.5,29.59,South,178,0.0,0.0,94,0.02,,-RA,0.04,VWS V14.01,2013-12-20 10:43:00,
2013-12-20 05:48:00,44.1,42.5,29.59,SSE,160,0.0,0.0,94,0.02,,-RA,0.04,VWS V14.01,2013-12-20 10:48:00,
2013-12-20 05:53:00,44.1,42.5,29.59,South,174,0.0,0.0,94,0.02,,-RA,0.04,VWS V14.01,2013-12-20 10:53:00,
2013-12-20 05:58:00,44.2,42.6,29.59,SSW,198,0.0,0.0,94,0.02,,-RA,0.04,VWS V14.01,2013-12-20 10:58:00,
2013-12-20 06:08:00,44.1,42.5,29.59,SSW,196,0.0,0.0,94,0.02,,-RA,0.04,VWS V14.01,2013-12-20 11:08:00,
2013-12-20 06:18:00,44.1,42.5,29.59,South,182,0.0,0.0,94,0.01,,-RA,0.04,VWS V14.01,2013-12-20 11:18:00,
2013-12-20 06:23:00,44.2,42.6,29.59,South,188,0.0,0.0,94,0.01,,-RA,0.04,VWS V14.01,2013-12-20 11:23:00,
2013-12-20 06:27:00,44.3,43.0,29.59,SSE,167,0.0,0.0,95,0.01,,-RA,0.04,VWS V14.01,2013-12-20 11:27:00,
2013-12-20 06:32:00,44.2,42.9,29.59,SSW,212,0.0,0.0,95,0.00,,-RA,0.04,VWS V14.01,2013-12-20 11:32:00,
2013-12-20 06:37:00,44.5,43.2,29.59,SSW,210,0.0,0.0,95,0.01,,-RA,0.05,VWS V14.01,2013-12-20 11:37:00,
2013-12-20 06:43:00,44.5,43.2,29.59,SSW,203,0.0,0.0,95,0.01,,-RA,0.05,VWS V14.01,2013-12-20 11:43:00,
2013-12-20 06:52:00,44.5,43.2,29.59,SSW,192,0.0,0.0,95,0.01,,-RA,0.05,VWS V14.01,2013-12-20 11:52:00,
2013-12-20 06:57:00,44.5,43.2,29.59,South,185,0.0,0.0,95,0.01,,-RA,0.05,VWS V14.01,2013-12-20 11:57:00,
2013-12-20 07:02:00,44.5,43.4,29.59,SSW,198,0.0,0.0,96,0.01,,-RA,0.05,VWS V14.01,2013-12-20 12:02:00,
2013-12-20 07:07:00,44.5,43.4,29.59,SSW,203,0.0,0.0,96,0.01,,-RA,0.05,VWS V14.01,2013-12-20 12:07:00,
2013-12-20 07:12:00,44.5,43.4,29.59,SW,223,0.0,0.0,96,0.01,,-RA,0.05,VWS V14.01,2013-12-20 12:12:00,
2013-12-20 07:18:00,44.3,43.2,29.59,South,181,0.0,0.0,96,0.01,,-RA,0.05,VWS V14.01,2013-12-20 12:18:00,
2013-12-20 07:23:00,44.3,43.2,29.59,SSE,158,0.0,0.0,96,0.01,,-RA,0.05,VWS V14.01,2013-12-20 12:23:00,
2013-12-20 07:28:00,44.3,43.2,29.59,SW,216,0.0,0.0,96,0.01,,-RA,0.05,VWS V14.01,2013-12-20 12:28:00,
2013-12-20 07:37:00,44.5,43.4,29.59,SSW,210,0.0,0.0,96,0.01,,-RA,0.05,VWS V14.01,2013-12-20 12:37:00,
2013-12-20 07:43:00,44.5,43.4,29.59,SSW,203,0.0,0.0,96,0.00,,-RA,0.05,VWS V14.01,2013-12-20 12:43:00,
2013-12-20 07:48:00,44.6,43.5,29.59,SSW,196,0.0,0.0,96,0.00,,-RA,0.05,VWS V14.01,2013-12-20 12:48:00,
2013-12-20 07:58:00,44.6,43.5,29.59,South,188,0.0,0.0,96,0.00,,-RA,0.05,VWS V14.01,2013-12-20 12:58:00,
2013-12-20 08:03:00,44.6,43.5,29.59,SW,224,0.0,0.0,96,0.00,,-RA,0.05,VWS V14.01,2013-12-20 13:03:00,
2013-12-20 08:08:00,44.6,43.5,29.59,South,188,0.0,0.0,96,0.00,,-RA,0.05,VWS V14.01,2013-12-20 13:08:00,
2013-12-20 08:13:00,44.8,43.7,29.59,SSW,198,0.0,0.0,96,0.00,,-RA,0.05,VWS V14.01,2013-12-20 13:13:00,
2013-12-20 08:22:00,44.9,44.1,29.60,South,172,0.0,0.0,97,0.00,,-RA,0.05,VWS V14.01,2013-12-20 13:22:00,
2013-12-20 08:28:00,44.8,44.0,29.60,SSW,192,0.0,0.0,97,0.00,,-RA,0.05,VWS V14.01,2013-12-20 13:28:00,
2013-12-20 08:33:00,44.9,44.1,29.60,South,179,0.0,0.0,97,0.00,,-RA,0.05,VWS V14.01,2013-12-20 13:33:00,
2013-12-20 08:38:00,44.8,44.0,29.60,South,188,0.0,0.0,97,0.00,,-RA,0.05,VWS V14.01,2013-12-20 13:38:00,
2013-12-20 08:43:00,44.9,44.1,29.60,South,185,0.0,0.0,97,0.00,,,0.05,VWS V14.01,2013-12-20 13:43:00,
2013-12-20 08:48:00,44.9,44.1,29.59,South,171,0.0,0.0,97,0.00,,,0.05,VWS V14.01,2013-12-20 13:48:00,
2013-12-20 08:53:00,44.8,44.0,29.59,South,185,0.0,0.0,97,0.00,,,0.05,VWS V14.01,2013-12-20 13:53:00,
2013-12-20 09:03:00,44.8,44.0,29.59,South,181,0.0,0.0,97,0.00,,,0.05,VWS V14.01,2013-12-20 14:03:00,
2013-12-20 09:12:00,44.9,44.1,29.59,South,189,0.0,0.0,97,0.00,,,0.05,VWS V14.01,2013-12-20 14:12:00,
2013-12-20 09:23:00,44.9,44.4,29.60,South,176,0.0,0.0,98,0.00,,,0.05,VWS V14.01,2013-12-20 14:23:00,
2013-12-20 09:33:00,45.4,44.9,29.60,South,188,0.0,0.0,98,0.00,,,0.05,VWS V14.01,2013-12-20 14:33:00,
2013-12-20 09:38:00,45.2,44.7,29.60,South,185,0.0,0.0,98,0.00,,,0.05,VWS V14.01,2013-12-20 14:38:00,
2013-12-20 09:48:00,45.5,45.0,29.60,SSE,164,0.0,0.0,98,0.02,,,0.07,VWS V14.01,2013-12-20 14:48:00,
2013-12-20 09:53:00,45.8,45.5,29.60,SSW,192,0.0,0.0,99,0.02,,,0.07,VWS V14.01,2013-12-20 14:53:00,
2013-12-20 09:58:00,45.7,45.4,29.60,South,174,0.0,0.0,99,0.03,,,0.08,VWS V14.01,2013-12-20 14:58:00,
2013-12-20 10:03:00,45.8,45.5,29.60,South,182,0.0,0.0,99,0.03,,,0.08,VWS V14.01,2013-12-20 15:03:00,
2013-12-20 10:08:00,45.8,45.5,29.60,South,175,0.0,0.0,99,0.03,,,0.08,VWS V14.01,2013-12-20 15:08:00,
2013-12-20 10:13:00,45.8,45.5,29.60,South,186,0.0,0.0,99,0.03,,,0.08,VWS V14.01,2013-12-20 15:13:00,
2013-12-20 10:18:00,46.0,45.7,29.60,SSW,210,0.0,0.0,99,0.03,,,0.08,VWS V14.01,2013-12-20 15:18:00,
2013-12-20 10:23:00,46.0,45.7,29.60,West,265,0.0,0.0,99,0.03,,,0.08,VWS V14.01,2013-12-20 15:23:00,
2013-12-20 10:33:00,45.4,45.1,29.61,West,267,0.0,0.0,99,0.03,,,0.08,VWS V14.01,2013-12-20 15:33:00,
2013-12-20 10:38:00,45.5,45.5,29.61,West,267,0.0,0.0,100,0.03,,,0.08,VWS V14.01,2013-12-20 15:38:00,
2013-12-20 10:43:00,45.5,45.5,29.61,West,267,0.0,0.0,100,0.03,,,0.08,VWS V14.01,2013-12-20 15:43:00,
2013-12-20 10:48:00,45.7,45.7,29.61,West,267,0.0,0.0,100,0.02,,,0.08,VWS V14.01,2013-12-20 15:48:00,
2013-12-20 10:53:00,45.7,45.7,29.61,West,267,0.0,0.0,100,0.01,,,0.08,VWS V14.01,2013-12-20 15:53:00,
2013-12-20 11:03:00,45.8,45.8,29.61,WSW,256,0.0,0.0,100,0.00,,,0.08,VWS V14.01,2013-12-20 16:03:00,
2013-12-20 11:08:00,45.7,45.7,29.61,West,267,0.0,0.0,100,0.01,,,0.09,VWS V14.01,2013-12-20 16:08:00,
2013-12-20 11:18:00,45.8,45.8,29.60,West,267,0.0,0.0,100,0.01,,,0.09,VWS V14.01,2013-12-20 16:18:00,
2013-12-20 11:23:00,46.4,46.4,29.60,West,267,0.0,0.0,100,0.01,,,0.09,VWS V14.01,2013-12-20 16:23:00,
2013-12-20 11:27:00,46.5,46.5,29.60,West,267,0.0,0.0,100,0.02,,,0.10,VWS V14.01,2013-12-20 16:27:00,
2013-12-20 11:33:00,46.5,46.5,29.59,West,267,0.0,0.0,100,0.02,,,0.10,VWS V14.01,2013-12-20 16:33:00,
2013-12-20 11:43:00,46.5,46.5,29.59,West,267,0.0,0.0,100,0.02,,,0.10,VWS V14.01,2013-12-20 16:43:00,
2013-12-20 11:48:00,46.4,46.4,29.58,West,267,0.0,0.0,100,0.02,,,0.10,VWS V14.01,2013-12-20 16:48:00,
2013-12-20 11:53:00,46.5,46.5,29.58,West,267,0.0,0.0,100,0.02,,,0.10,VWS V14.01,2013-12-20 16:53:00,
2013-12-20 12:02:00,47.0,47.0,29.58,West,267,0.0,0.0,100,0.02,,,0.10,VWS V14.01,2013-12-20 17:02:00,
2013-12-20 12:07:00,47.0,47.0,29.58,West,267,0.0,0.0,100,0.03,,,0.11,VWS V14.01,2013-12-20 17:07:00,
2013-12-20 12:12:00,47.0,47.0,29.58,WSW,256,0.0,0.0,100,0.02,,,0.11,VWS V14.01,2013-12-20 17:12:00,
2013-12-20 12:18:00,47.0,47.0,29.57,West,267,0.0,0.0,100,0.02,,,0.11,VWS V14.01,2013-12-20 17:18:00,
2013-12-20 12:23:00,46.8,46.8,29.57,West,267,0.0,0.0,100,0.03,,,0.12,VWS V14.01,2013-12-20 17:23:00,
2013-12-20 12:33:00,47.1,47.1,29.57,West,267,0.0,0.0,100,0.02,,,0.12,VWS V14.01,2013-12-20 17:33:00,
2013-12-20 12:38:00,47.4,47.4,29.57,WSW,256,0.0,0.0,100,0.03,,,0.13,VWS V14.01,2013-12-20 17:38:00,
2013-12-20 12:47:00,47.7,47.7,29.56,West,267,0.0,0.0,100,0.04,,,0.14,VWS V14.01,2013-12-20 17:47:00,
2013-12-20 12:52:00,47.7,47.7,29.56,West,267,0.0,0.0,100,0.04,,,0.14,VWS V14.01,2013-12-20 17:52:00,
2013-12-20 12:57:00,47.9,47.9,29.56,West,265,0.0,0.0,100,0.05,,,0.15,VWS V14.01,2013-12-20 17:57:00,
2013-12-20 13:03:00,47.9,47.9,29.55,WSW,254,0.0,0.0,100,0.05,,,0.15,VWS V14.01,2013-12-20 18:03:00,
2013-12-20 13:08:00,48.0,48.0,29.55,SSE,158,0.0,0.0,100,0.06,,,0.16,VWS V14.01,2013-12-20 18:08:00,
2013-12-20 13:18:00,48.0,48.0,29.55,South,191,0.0,0.0,100,0.05,,,0.16,VWS V14.01,2013-12-20 18:18:00,
2013-12-20 13:23:00,48.0,48.0,29.55,South,191,0.0,0.0,100,0.05,,-RA,0.16,VWS V14.01,2013-12-20 18:23:00,
2013-12-20 13:28:00,48.0,48.0,29.55,South,189,0.0,0.0,100,0.04,,-RA,0.16,VWS V14.01,2013-12-20 18:28:00,
2013-12-20 13:38:00,48.3,48.3,29.54,SSW,198,0.0,0.0,100,0.04,,-RA,0.16,VWS V14.01,2013-12-20 18:38:00,
2013-12-20 13:43:00,48.3,48.3,29.54,SSW,200,0.0,0.0,100,0.03,,-RA,0.16,VWS V14.01,2013-12-20 18:43:00,
2013-12-20 13:48:00,48.3,48.3,29.53,South,184,0.0,0.0,100,0.03,,-RA,0.16,VWS V14.01,2013-12-20 18:48:00,
2013-12-20 13:53:00,48.5,48.5,29.53,SSW,199,0.0,0.0,100,0.02,,-RA,0.16,VWS V14.01,2013-12-20 18:53:00,
2013-12-20 13:57:00,48.5,48.5,29.53,South,189,0.0,0.0,100,0.02,,-RA,0.16,VWS V14.01,2013-12-20 18:57:00,
2013-12-20 14:03:00,48.6,48.6,29.53,SSW,195,0.0,0.0,100,0.01,,-RA,0.16,VWS V14.01,2013-12-20 19:03:00,
2013-12-20 14:12:00,48.9,48.9,29.53,SSW,206,0.0,0.0,100,0.01,,-RA,0.17,VWS V14.01,2013-12-20 19:12:00,
2013-12-20 14:17:00,49.1,49.1,29.52,SSW,210,0.0,0.0,100,0.01,,-RA,0.17,VWS V14.01,2013-12-20 19:17:00,
2013-12-20 14:22:00,49.4,49.4,29.52,South,181,0.0,0.0,100,0.01,,-RA,0.17,VWS V14.01,2013-12-20 19:22:00,
2013-12-20 14:28:00,49.5,49.5,29.52,SSW,196,0.0,0.0,100,0.01,,-RA,0.17,VWS V14.01,2013-12-20 19:28:00,
2013-12-20 14:37:00,49.9,49.9,29.52,SSW,206,0.0,0.0,100,0.01,,-RA,0.17,VWS V14.01,2013-12-20 19:37:00,
2013-12-20 14:43:00,50.1,50.1,29.52,SSW,195,0.0,0.0,100,0.01,,-RA,0.17,VWS V14.01,2013-12-20 19:43:00,
2013-12-20 14:48:00,50.1,50.1,29.52,SSW,198,0.0,0.0,100,0.01,,-RA,0.17,VWS V14.01,2013-12-20 19:48:00,
2013-12-20 14:58:00,50.2,50.2,29.52,South,191,0.0,0.0,100,0.01,,-RA,0.17,VWS V14.01,2013-12-20 19:58:00,
2013-12-20 15:03:00,50.2,50.2,29.52,SSW,213,0.0,0.0,100,0.01,,-RA,0.17,VWS V14.01,2013-12-20 20:03:00,
2013-12-20 15:08:00,50.4,50.4,29.52,SSW,198,0.0,0.0,100,0.01,,-RA,0.17,VWS V14.01,2013-12-20 20:08:00,
2013-12-20 15:13:00,50.7,50.7,29.52,South,171,0.0,0.0,100,0.00,,-RA,0.17,VWS V14.01,2013-12-20 20:13:00,
2013-12-20 15:18:00,51.0,51.0,29.51,SSE,167,0.0,0.0,100,0.00,,-RA,0.17,VWS V14.01,2013-12-20 20:18:00,
2013-12-20 15:28:00,51.1,51.1,29.51,SSE,164,0.0,0.0,100,0.00,,,0.17,VWS V14.01,2013-12-20 20:28:00,
2013-12-20 15:33:00,51.1,51.1,29.51,South,182,0.0,0.0,100,0.00,,,0.17,VWS V14.01,2013-12-20 20:33:00,
2013-12-20 15:38:00,51.1,51.1,29.51,South,189,0.0,0.0,100,0.00,,,0.17,VWS V14.01,2013-12-20 20:38:00,
2013-12-20 15:43:00,51.1,51.1,29.51,South,184,0.0,0.0,100,0.00,,,0.17,VWS V14.01,2013-12-20 20:43:00,
2013-12-20 15:48:00,51.3,51.3,29.52,SSE,155,0.0,0.0,100,0.00,,,0.17,VWS V14.01,2013-12-20 20:48:00,
2013-12-20 15:53:00,51.3,51.3,29.52,SSE,147,0.0,0.0,100,0.00,,,0.17,VWS V14.01,2013-12-20 20:53:00,
2013-12-20 16:03:00,51.3,51.3,29.52,South,174,0.0,0.0,100,0.00,,,0.17,VWS V14.01,2013-12-20 21:03:00,
2013-12-20 16:08:00,51.4,51.4,29.52,South,188,0.0,0.0,100,0.00,,,0.17,VWS V14.01,2013-12-20 21:08:00,
2013-12-20 16:18:00,51.6,51.6,29.52,SSW,195,0.0,0.0,100,0.01,,,0.18,VWS V14.01,2013-12-20 21:18:00,
2013-12-20 16:23:00,51.7,51.7,29.52,South,172,0.0,0.0,100,0.01,,-RA,0.18,VWS V14.01,2013-12-20 21:23:00,
2013-12-20 16:27:00,51.9,51.9,29.52,SSW,198,0.0,0.0,100,0.01,,-RA,0.18,VWS V14.01,2013-12-20 21:27:00,
2013-12-20 16:32:00,51.9,51.9,29.53,South,191,0.0,0.0,100,0.01,,-RA,0.18,VWS V14.01,2013-12-20 21:32:00,
2013-12-20 16:37:00,51.9,51.9,29.53,SSW,198,0.0,0.0,100,0.01,,-RA,0.18,VWS V14.01,2013-12-20 21:37:00,
2013-12-20 16:42:00,52.2,52.2,29.53,SW,219,0.0,0.0,100,0.01,,-RA,0.18,VWS V14.01,2013-12-20 21:42:00,
2013-12-20 16:48:00,52.0,52.0,29.53,South,169,0.0,0.0,100,0.01,,-RA,0.18,VWS V14.01,2013-12-20 21:48:00,
2013-12-20 16:58:00,52.3,52.3,29.53,SSE,168,0.0,0.0,100,0.01,,-RA,0.18,VWS V14.01,2013-12-20 21:58:00,
2013-12-20 17:03:00,52.3,52.3,29.53,South,188,0.0,0.0,100,0.01,,-RA,0.18,VWS V14.01,2013-12-20 22:03:00,
2013-12-20 17:08:00,52.5,52.5,29.53,SW,216,0.0,0.0,100,0.01,,-RA,0.18,VWS V14.01,2013-12-20 22:08:00,
2013-12-20 17:13:00,52.3,52.3,29.53,SSW,209,0.0,0.0,100,0.02,,-RA,0.19,VWS V14.01,2013-12-20 22:13:00,
2013-12-20 17:23:00,52.6,52.6,29.53,SW,226,0.0,0.0,100,0.01,,-RA,0.19,VWS V14.01,2013-12-20 22:23:00,
2013-12-20 17:33:00,52.3,52.3,29.53,SW,222,0.0,0.0,100,0.01,,-RA,0.19,VWS V14.01,2013-12-20 22:33:00,
2013-12-20 17:38:00,52.5,52.5,29.53,SW,234,0.0,0.0,100,0.01,,-RA,0.19,VWS V14.01,2013-12-20 22:38:00,
2013-12-20 17:43:00,52.5,52.5,29.53,SW,234,0.0,0.0,100,0.01,,-RA,0.19,VWS V14.01,2013-12-20 22:43:00,
2013-12-20 17:48:00,51.9,51.9,29.54,SSW,205,0.0,0.0,100,0.01,,-RA,0.19,VWS V14.01,2013-12-20 22:48:00,
2013-12-20 17:53:00,50.4,50.4,29.54,NW,304,0.0,0.0,100,0.01,,-RA,0.19,VWS V14.01,2013-12-20 22:53:00,
2013-12-20 17:58:00,48.9,48.9,29.54,WNW,289,0.0,0.0,100,0.01,,-RA,0.19,VWS V14.01,2013-12-20 22:58:00,
2013-12-20 18:03:00,48.3,48.3,29.55,WNW,288,0.0,0.0,100,0.01,,-RA,0.19,VWS V14.01,2013-12-20 23:03:00,
2013-12-20 18:08:00,47.9,47.9,29.55,WNW,284,0.0,0.0,100,0.01,,-RA,0.19,VWS V14.01,2013-12-20 23:08:00,
2013-12-20 18:13:00,47.4,47.4,29.55,West,274,0.0,0.0,100,0.01,,-RA,0.19,VWS V14.01,2013-12-20 23:13:00,
2013-12-20 18:18:00,46.7,46.7,29.55,WNW,284,0.0,0.0,100,0.00,,-RA,0.19,VWS V14.01,2013-12-20 23:18:00,
2013-12-20 18:23:00,46.1,46.1,29.55,WNW,284,0.0,0.0,100,0.00,,,0.19,VWS V14.01,2013-12-20 23:23:00,
2013-12-20 18:33:00,45.7,45.7,29.55,WNW,284,0.0,0.0,100,0.01,,,0.20,VWS V14.01,2013-12-20 23:33:00,
2013-12-20 18:38:00,45.7,45.7,29.55,WNW,284,0.0,0.0,100,0.03,,,0.22,VWS V14.01,2013-12-20 23:38:00,
2013-12-20 18:43:00,45.5,45.5,29.55,WNW,284,0.0,0.0,100,0.03,,,0.22,VWS V14.01,2013-12-20 23:43:00,
2013-12-20 18:48:00,45.4,45.4,29.55,WNW,284,0.0,0.0,100,0.03,,,0.22,VWS V14.01,2013-12-20 23:48:00,
2013-12-20 18:53:00,45.2,45.2,29.55,WNW,284,0.0,0.0,100,0.04,,,0.23,VWS V14.01,2013-12-20 23:53:00,
2013-12-20 19:03:00,45.1,45.1,29.55,WNW,284,0.0,0.0,100,0.04,,,0.23,VWS V14.01,2013-12-21 00:03:00,
2013-12-20 19:08:00,44.8,44.8,29.55,WNW,284,0.0,0.0,100,0.04,,,0.23,VWS V14.01,2013-12-21 00:08:00,
2013-12-20 19:17:00,44.5,44.5,29.56,WNW,284,0.0,0.0,100,0.04,,,0.23,VWS V14.01,2013-12-21 00:17:00,
2013-12-20 19:23:00,44.3,44.3,29.56,WNW,284,0.0,0.0,100,0.04,,,0.23,VWS V14.01,2013-12-21 00:23:00,
2013-12-20 19:33:00,44.1,44.1,29.57,WNW,284,0.0,0.0,100,0.04,,,0.23,VWS V14.01,2013-12-21 00:33:00,
2013-12-20 19:38:00,44.1,44.1,29.57,WNW,282,0.0,0.0,100,0.03,,,0.23,VWS V14.01,2013-12-21 00:38:00,
2013-12-20 19:43:00,44.1,44.1,29.57,WNW,282,0.0,0.0,100,0.01,,,0.23,VWS V14.01,2013-12-21 00:43:00,
2013-12-20 19:52:00,44.1,44.1,29.55,WNW,282,0.0,0.0,100,0.01,,,0.23,VWS V14.01,2013-12-21 00:52:00,
2013-12-20 19:57:00,43.8,43.8,29.55,WNW,284,0.0,0.0,100,0.00,,,0.23,VWS V14.01,2013-12-21 00:57:00,
2013-12-20 20:02:00,43.8,43.8,29.55,WNW,282,0.0,0.0,100,0.00,,,0.23,VWS V14.01,2013-12-21 01:02:00,
2013-12-20 20:08:00,43.9,43.9,29.55,WNW,284,0.0,0.0,100,0.00,,,0.23,VWS V14.01,2013-12-21 01:08:00,
2013-12-20 20:13:00,43.9,43.9,29.55,WNW,282,0.0,0.0,100,0.00,,,0.23,VWS V14.01,2013-12-21 01:13:00,
2013-12-20 20:18:00,44.2,44.2,29.54,West,274,0.0,0.0,100,0.00,,,0.23,VWS V14.01,2013-12-21 01:18:00,
2013-12-20 20:23:00,44.1,44.1,29.54,WNW,282,0.0,0.0,100,0.00,,-RA,0.23,VWS V14.01,2013-12-21 01:23:00,
2013-12-20 20:28:00,43.5,43.5,29.54,WNW,285,0.0,0.0,100,0.00,,-RA,0.23,VWS V14.01,2013-12-21 01:28:00,
2013-12-20 20:33:00,42.3,42.3,29.55,West,274,0.0,0.0,100,0.01,,-RA,0.24,VWS V14.01,2013-12-21 01:33:00,
2013-12-20 20:38:00,41.5,41.5,29.55,West,278,0.0,0.0,100,0.01,,-RA,0.24,VWS V14.01,2013-12-21 01:38:00,
2013-12-20 20:43:00,41.1,41.1,29.55,West,278,0.0,0.0,100,0.01,,-RA,0.24,VWS V14.01,2013-12-21 01:43:00,
2013-12-20 20:48:00,40.8,40.8,29.56,West,278,0.0,0.0,100,0.01,,-RA,0.24,VWS V14.01,2013-12-21 01:48:00,
2013-12-20 20:57:00,40.5,40.5,29.56,West,278,0.0,0.0,100,0.01,,-RA,0.24,VWS V14.01,2013-12-21 01:57:00,
2013-12-20 21:03:00,40.6,40.6,29.55,West,278,0.0,0.0,100,0.01,,-RA,0.24,VWS V14.01,2013-12-21 02:03:00,
2013-12-20 21:13:00,41.1,41.1,29.55,West,278,0.0,0.0,100,0.01,,-RA,0.24,VWS V14.01,2013-12-21 02:13:00,
2013-12-20 21:18:00,41.2,41.2,29.56,West,278,0.0,0.0,100,0.01,,-RA,0.24,VWS V14.01,2013-12-21 02:18:00,
2013-12-20 21:23:00,41.5,41.5,29.56,West,278,0.0,0.0,100,0.01,,-RA,0.24,VWS V14.01,2013-12-21 02:23:00,
2013-12-20 21:27:00,42.1,42.1,29.56,West,278,0.0,0.0,100,0.01,,-RA,0.24,VWS V14.01,2013-12-21 02:27:00,
2013-12-20 21:32:00,42.5,42.5,29.55,SSW,192,0.0,0.0,100,0.01,,-RA,0.24,VWS V14.01,2013-12-21 02:32:00,
2013-12-20 21:38:00,43.2,43.2,29.55,South,182,0.0,0.0,100,0.00,,-RA,0.24,VWS V14.01,2013-12-21 02:38:00,
2013-12-20 21:43:00,43.9,43.9,29.55,South,191,0.0,0.0,100,0.00,,-RA,0.24,VWS V14.01,2013-12-21 02:43:00,
2013-12-20 21:53:00,45.7,45.7,29.55,SSW,202,0.0,0.0,100,0.00,,-RA,0.24,VWS V14.01,2013-12-21 02:53:00,
2013-12-20 22:02:00,46.5,46.5,29.56,SW,217,0.0,0.0,100,0.00,,-RA,0.24,VWS V14.01,2013-12-21 03:02:00,
2013-12-20 22:08:00,46.8,46.8,29.56,WSW,246,0.0,0.0,100,0.00,,-RA,0.24,VWS V14.01,2013-12-21 03:08:00,
2013-12-20 22:13:00,46.7,46.7,29.56,SW,226,0.0,0.0,100,0.00,,-RA,0.24,VWS V14.01,2013-12-21 03:13:00,
2013-12-20 22:22:00,46.0,46.0,29.57,SW,227,0.0,0.0,100,0.00,,-RA,0.24,VWS V14.01,2013-12-21 03:22:00,
2013-12-20 22:27:00,45.5,45.5,29.57,WSW,254,0.0,0.0,100,0.00,,-RA,0.24,VWS V14.01,2013-12-21 03:27:00,
2013-12-20 22:32:00,45.2,45.2,29.57,WSW,248,0.0,0.0,100,0.00,,-RA,0.24,VWS V14.01,2013-12-21 03:32:00,
2013-12-20 22:37:00,44.9,44.9,29.57,SW,215,0.0,0.0,100,0.00,,-RA,0.24,VWS V14.01,2013-12-21 03:37:00,
2013-12-20 22:42:00,44.5,44.5,29.57,South,169,0.0,0.0,100,0.00,,-RA,0.24,VWS V14.01,2013-12-21 03:42:00,
2013-12-20 22:48:00,44.2,44.2,29.58,WSW,258,0.0,0.0,100,0.00,,-RA,0.24,VWS V14.01,2013-12-21 03:48:00,
2013-12-20 22:57:00,43.6,43.6,29.58,WSW,248,0.0,0.0,100,0.00,,-RA,0.24,VWS V14.01,2013-12-21 03:57:00,
2013-12-20 23:03:00,43.2,43.2,29.58,WSW,254,0.0,0.0,100,0.00,,-RA,0.00,VWS V14.01,2013-12-21 04:03:00,
2013-12-20 23:13:00,42.3,42.3,29.58,WSW,241,0.0,0.0,100,0.00,,-RA,0.00,VWS V14.01,2013-12-21 04:13:00,
2013-12-20 23:22:00,41.6,41.6,29.58,WSW,244,0.0,0.0,100,0.00,,-RA,0.00,VWS V14.01,2013-12-21 04:22:00,
2013-12-20 23:27:00,41.3,41.3,29.58,SW,234,0.0,0.0,100,0.00,,-RA,0.00,VWS V14.01,2013-12-21 04:27:00,
2013-12-20 23:32:00,41.1,41.1,29.58,SW,216,0.0,0.0,100,0.00,,-RA,0.00,VWS V14.01,2013-12-21 04:32:00,
2013-12-20 23:38:00,40.8,40.8,29.58,WSW,243,0.0,0.0,100,0.00,,-RA,0.00,VWS V14.01,2013-12-21 04:38:00,
2013-12-20 23:47:00,40.3,40.3,29.59,West,263,0.0,0.0,100,0.00,,-RA,0.00,VWS V14.01,2013-12-21 04:47:00,
2013-12-20 23:52:00,39.9,39.9,29.59,WSW,256,0.0,0.0,100,0.00,,-RA,0.00,VWS V14.01,2013-12-21 04:52:00,
2013-12-20 23:57:00,39.6,39.6,29.59,West,260,0.0,0.0,100,0.00,,-RA,0.00,VWS V14.01,2013-12-21 04:57:00,